www.pogodaiklimat.ru

Погода и климат >> Архив погоды >> Россия >> Калмыкия >> Яшкуль


АРХИВ ПОГОДЫ в Яшкуле

Время (UTC), дата Ветер
(напр.,м/с)
 
Видим.   Явления Облачность Т
(С)
Тd
(С)
f
(%)
Тe
(С)
Тes
(С)
Комфортность P
(гПа)
Po
(гПа)
Тmin
(С)
Tmax
(С)
R
(мм)
R24
(мм)
S
(см)
18 19.05 С 3 20 км 6/0
[Ci fib]
+20.5 +2.1 29 +21 +21 комфорт 1012.3 1013.2
21 19.05 СВ 3 20 км 6/0
[Ci fib]
+17.8 +3.7 39 +18 +18 тепло 1012.4 1013.2
00 20.05 СВ 2 20 км ясно +14.1 +3.5 49 +14 +14 по сезону 1013.3 1014.1
03 20.05 СВ 2 20 км 6/0
[Ac trans Ci fib]
+15.7 +5.0 49 +16 +17 по сезону 1014.3 1015.1 +11.8
06 20.05 С 4 20 км 6/0
[Ci fib]
+24.0 +2.6 25 +23 +30 комфорт 1015.4 1016.2
09 20.05 С 5 20 км ясно +26.1 +1.3 20 +25 +34 комфорт 1016.1 1016.9
12 20.05 С 5
{11}
20 км ясно +26.0 -0.1 18 +24 +30 комфорт 1016.3 1017.1
15 20.05 С 6 20 км 8/0
[Ci fib]
+23.2 -1.7 19 +22 +22 комфорт 1017.1 1017.9 +26.5
18 20.05 С 4 20 км ясно +16.8 -4.4 23 +16 +16 по сезону 1019.0 1019.8
21 20.05 В 3 20 км ясно +11.5 -2.9 36 +10 +10 холодно 1019.9 1020.8
00 21.05 В 3 20 км ясно +10.4 -1.5 43 +9 +9 прохладно 1020.2 1021.1
03 21.05 ЮВ 3 20 км ясно +13.2 +0.3 41 +12 +14 прохладно 1021.3 1022.1 +9.7
06 21.05 В 4 20 км ясно +20.2 -1.9 22 +20 +28 по сезону 1022.1 1023.0
09 21.05 В 4 20 км ясно +23.0 -1.7 19 +22 +34 комфорт 1021.9 1022.8
12 21.05 В 2 20 км ясно +24.4 -2.8 16 +23 +34 комфорт 1020.8 1021.6
15 21.05 В 3 20 км ясно +23.8 -3.5 16 +22 +23 комфорт 1020.1 1020.9 +24.9
18 21.05 В 3 20 км ясно +17.1 -1.0 29 +17 +17 по сезону 1021.3 1022.2
21 21.05 ЮВ 3 20 км ясно +13.9 +5.1 55 +13 +13 прохладно 1021.3 1022.2
00 22.05 В 2 20 км ясно +9.7 +4.9 72 +8 +8 прохладно 1020.6 1021.5
03 22.05 ЮВ 3 20 км ясно +11.6 +5.3 65 +10 +11 холодно 1020.2 1021.1 +9.1
06 22.05 ЮВ 6-10
{12}
20 км 9/0
[Ac und]
+19.9 +3.7 34 +20 +22 по сезону 1019.1 1019.9
09 22.05 В 6-11
{13}
20 км 8/0
[Ac und Ci fib]
+23.3 +0.3 22 +22 +27 комфорт 1016.9 1017.7
12 22.05 ЮВ 5
{14}
20 км 9/0
[Ac trans Ci fib]
+24.9 +1.5 22 +24 +27 комфорт 1015.1 1015.9
15 22.05 ЮВ 5
{11}
20 км 8/0
[Ac trans]
+22.4 +4.3 31 +23 +23 комфорт 1015.6 1016.4 +25.1
18 22.05 ЮВ 4 20 км 10/0
[Ac As]
+19.0 +7.0 46 +19 +19 по сезону 1015.7 1016.5
21 22.05 ЮВ 3 20 км 10/0
[Ac As]
+17.9 +8.4 54 +18 +18 тепло 1014.8 1015.6
00 23.05 В 2 20 км 10/0
[Ac As]
+15.1 +8.6 65 +15 +15 тепло 1014.0 1014.8
03 23.05 ЮВ 2 20 км 9/0
[Ac trans]
+15.3 +7.7 60 +15 +16 по сезону 1013.0 1013.9 +13.5
06 23.05 Ю 3 20 км {ливн. осадки} 8/4 600 м
[Cb calv Ac trans]
+19.9 +12.6 63 +22 +25 комфорт 1012.0 1012.8
09 23.05 ЮЗ 4 20 км {ливн. осадки} 6/6 600 м
[Cb calv]
+25.2 +8.7 35 +26 +31 жарко 1009.8 1010.6
12 23.05 С 2
{15}
10 км гроза, ливневой дождь 10/10 600 м
[Cb calv]
+20.2 +13.8 67 +23 +23 комфорт 1009.8 1010.6
15 23.05 СЗ 5
{13}
20 км {гроза} 9/6 600 м
[Cb calv Ac trans]
+21.0 +8.5 45 +22 +23 комфорт 1009.6 1010.4 +26.0 4
18 23.05 ЮЗ 2 20 км {гроза} 6/0
[Ac trans]
+17.0 +10.2 64 +17 +17 прохладно 1010.6 1011.5
21 23.05 ЮЗ 6 20 км {гроза} 6/0
[Ac trans]
+17.0 +10.2 64 +16 +16 по сезону 1010.6 1011.7
00 24.05 ЮЗ 3 20 км в посл. час ливневой дождь 10/6 600 м
[Cb calv Ac As]
+15.0 +13.3 90 +14 +14 по сезону 1010.1 1010.9
03 24.05 ЮЗ 2 20 км {ливн. осадки} 10/4 600 м
[Cb calv Ac As]
+15.7 +13.3 86 +16 +16 по сезону 1009.7 1010.6 +14.8 2
06 24.05 З 5 20 км {ливн. осадки} 6/0
[Ac trans]
+21.2 +13.2 60 +24 +27 комфорт 1009.9 1010.8
09 24.05 З 7-10
{12}
20 км {ливн. осадки} 8/8 600 м
[Cu hum]
+25.2 +10.8 40 +26 +27 жарко 1009.2 1010.0
12 24.05 З 5
{11}
20 км 8/8 600 м
[Cu hum]
+25.9 +9.8 36 +27 +28 жарко 1009.4 1010.2
15 24.05 З 3 20 км 6/0
[Ci fib]
+26.3 +7.7 31 +26 +27 жарко 1009.2 1010.0 +27.1 0.3
18 24.05 ЮЗ 2 20 км 6/0
[Ci fib]
+20.8 +10.1 50 +23 +23 комфорт 1010.6 1011.4
21 24.05 З 1 20 км ясно +17.5 +11.4 67 +19 +19 тепло 1010.9 1011.7
00 25.05 штиль 0 20 км 8/0
[Ci fib]
+14.9 +11.0 77 +15 +15 тепло 1011.1 1011.9
03 25.05 штиль 0 20 км 8/0
[Ac trans Ci fib]
+15.9 +11.9 77 +16 +17 по сезону 1011.5 1012.3 +13.5
06 25.05 ЮВ 3 20 км 8/0
[Ac trans]
+25.7 +9.6 36 +26 +31 жарко 1011.2 1012.0
09 25.05 ЮВ 5 20 км 6/0
[Ac trans Ci fib]
+29.4 +6.5 24 +28 +35 жарко 1009.7 1010.5
12 25.05 ЮВ 7-14
{14}
20 км 6/6 600 м
[Cu hum]
+30.1 +7.0 23 +29 +30 жарко 1007.3 1008.1
15 25.05 ЮВ 5
{14}
20 км 9/0
[Ac trans]
+26.5 +6.3 28 +26 +26 жарко 1009.2 1010.0 +30.8
18 25.05 ЮВ 5
{12}
20 км 9/0
[Ac trans]
+22.6 +8.1 39 +24 +24 комфорт 1010.2 1011.0
21 25.05 Ю 5
{11}
20 км ясно +19.7 +10.8 56 +21 +21 комфорт 1010.5 1011.3
00 26.05 З 1 20 км ясно +16.8 +12.2 74 +18 +18 тепло 1011.4 1012.2
03 26.05 ЮЗ 2 20 км ясно +16.9 +12.3 74 +17 +19 по сезону 1012.4 1013.2 +15.4
06 26.05 З 4 20 км 8/0
[Ac trans]
+22.3 +10.7 48 +24 +28 комфорт 1013.4 1014.3
09 26.05 З 4 20 км 8/5 600 м
[Cb cap Ac trans Ci fib]
+25.3 +10.2 39 +26 +31 жарко 1012.9 1013.7
12 26.05 ЮЗ 6-11
{13}
20 км 8/5 600 м
[Cb cap Ac trans]
+27.5 +7.6 28 +27 +29 жарко 1011.6 1012.4
15 26.05 ЮЗ 6
{13}
20 км 8/0
[Ac trans Ci fib]
+25.9 +7.2 30 +26 +26 жарко 1011.8 1012.6 +28.1

 

Местоположение метеостанции Яшкуль (Калмыкия, Россия): широта 46.18 долгота 45.35 высота над уровнем моря -7 м.

В архиве по умолчанию представлена погода в Яшкуле за последнюю неделю. Архивные данные за месяц целиком и за предыдущие месяцы, начиная с января 2011 года, Вы можете получить, выбрав интересующий диапазон дат из раскрывающегося списка и нажав кнопку "Ввод!".


*Определитесь, кто Вы:
робот инопланетянин человек

Внимание! Время в таблицах - всемирное. Для получения местного времени необходимо прибавить поправку, которая равна 3 ч.

Смотрите также архив погоды в соседних городах и на ближайших метеорологических станциях:

Погода в Утте (Калмыкия, Россия) (56 км)
Погода в Ики-Буруле (Калмыкия, Россия) (70 км)
Погода в Элисте (Калмыкия, Россия) (81 км)
Погода в Комсомольском (Калмыкия, Россия) (106 км)
Погода в Арзгире (Ставропольский край, Россия) (124 км)
Погода в Юсте (Калмыкия, Россия) (129 км)
Погода в Ремонтном (Ростовская область, Россия) (136 км)
Погода в Кетченерах (Калмыкия, Россия) (140 км)
Погода в Лимане (Астраханская область, Россия) (151 км)
Погода в Дивном (Ставропольский край, Россия) (157 км)

Пояснения к столбцам:

Ветер - указаны скорость ветра в м/с - средняя за 10 мин, порывы в срок и между сроками (в фигурных скобках) и направление, откуда дует ветер: С - северный, СВ - северо-восточный, В - восточный, ЮВ - юго-восточный, Ю - южный, ЮЗ - юго-западный, З - западный, СЗ - северо-западный.
Видимость - горизонтальная дальность видимости в метрах или километрах. При видимости от 1 до 10 км при отсутствии осадков обычно наблюдается дымка, при ухудшении видимости до 1 км и менее - туман. В сухую погоду видимость может ухудшаться дымом, пылью или мглою.
Явления - указаны атмосферные явления, наблюдавшиеся в срок или в последний час перед сроком; фигурными скобками обозначены явления, наблюдавшиеся между сроками (за 1-3 часа до срока); квадратными скобками обозначены град или гололедные отложения с указанием их диаметра в мм.
Облачность - указаны через наклонную черту общая и нижняя облачность в баллах и высота нижней границы облаков в метрах; квадратными скобками обозначены формы облаков: Ci - перистые, Cs - перисто-слоистые, Cc - перисто-кучевые, Ac - высококучевые, As - высокослоистые, Sc - слоисто-кучевые, Ns - слоисто-дождевые, Cu - кучевые, Cb - кучево-дождевые. Подробнее классификацию облаков см. в Атласе облаков (PDF).
T - Температура воздуха - температура, измеренная на высоте 2 м над землей.
Td - Температура точки росы - температура, при понижении до которой содержащийся в воздухе водяной пар достигнет насыщения.
f - Относительная влажность воздуха - влажноcть воздуха, измеренная на высоте 2 м над землей.
Te - Эффективная температура - температура, которую ощущает одетый по сезону человек в тени. Характеристика душности погоды. При расчете учитывается влияние влажности воздуха и скорости ветра на теплоощущения человека.
Tes - Эффективная температура на солнце - температура, которую ощущает человек, с поправкой на солнечный нагрев. Характеристика знойности погоды. Зависит от высоты солнца над горизонтом, облачности и скорости ветра. Ночью, в пасмурную погоду, а также при ветре 12 м/с и более поправка равна нулю.
P - Атмосферное давление - приведенное к уровню моря атмосферное давление.
Po - Атмосферное давление - измеренное на уровне метеостанции атмосферное давление.
Tmin - Минимальная температура - минимум температуры воздуха на высоте 2 м над землей.
Tmax - Максимальная температура - максимум температуры воздуха на высоте 2 м над землей.
R - Количество осадков - Количество выпавших осадков за период времени, мм. При наведении курсора мыши на число - период времени, за который выпало указанное количество осадков.
R24 - Количество осадков - Количество выпавших осадков за 24 часа, мм.
S - Снежный покров - Высота снежного покрова, см. При наведении курсора мыши на число - состояние снежного покрова и степень покрытия местности в баллах.